[[{"header":{"parameterUnit":"m.s-1","parameterCategory":1,"la1":30.2991,"la2":30.254,"lo1":-89.0895,"lo2":-89.0444,"dy":0.0017,"dx":0.0017,"nx":28,"ny":28,"refTime":"2025-07-19T21:00:00:Z","depth":0,"parameterNumber":2,"parameterNumberName":"U-component_of_WINDS"},"data":[0,0,0,0,0,0,0,0,0,0,0,0,0,0,0,0,0,0,0,0,0,0,0,0,0,0,0,0,0,0,0,0,0,0,0,0,0,0,0,0,0,0,0,0,0,0,0,0,0,0,0,0,0,0,0,0,0,0,2.54,2.5402,0,2.5526,2.5527,2.5529,2.5522,2.552,2.5518,2.5517,2.5652,2.5657,2.5662,0,0,0,0,0,0,0,0,0,0,0,0,0,2.5161,2.5166,2.54,2.5402,2.5403,2.5525,2.5527,2.5529,2.5522,2.552,2.5518,2.5516,2.565,2.5656,2.5663,0,0,0,0,0,0,0,0,0,0,0,0,0,2.5274,2.5167,2.54,2.5415,2.5417,2.5525,2.5527,2.5529,2.5523,2.552,2.5517,2.5515,2.5648,2.5656,2.5663,2.5767,0,0,2.5688,2.5691,0,0,0,0,0,0,0,0,2.5267,2.5283,2.5411,2.5414,2.5417,2.5505,2.5492,2.5609,2.5523,2.5483,2.5517,2.5513,2.5606,2.5617,2.5647,2.5773,2.5779,2.5688,2.5693,2.5697,2.5699,0,0,0,0,0,0,0,2.526,2.5277,2.545,2.5413,2.5416,2.5417,2.543,2.5515,2.5558,2.5486,2.5486,2.5501,2.5607,2.5639,2.565,2.5781,2.5688,2.5695,2.57,2.5703,2.5999,2.6002,0,0,0,0,0,0,2.5248,2.5271,2.5446,2.5454,2.5334,2.5423,2.5438,2.548,2.5557,2.5566,2.5503,2.55,2.5627,2.564,2.5654,2.578,2.5697,2.5704,2.5709,2.5996,2.6,2.6003,0,0,0,0,0,0,2.5243,2.5263,2.5441,2.5362,2.5385,2.543,2.5477,2.5484,2.5516,2.557,2.5578,2.5527,2.5625,2.5643,2.5739,2.5785,2.5708,2.5715,2.5993,2.5997,2.6002,2.6033,0,0,0,0,0,0,2.5236,2.5262,2.53,2.5363,2.5389,2.5521,2.548,2.5488,2.5529,2.5526,2.5595,2.5604,2.5624,2.5727,2.5746,2.5794,2.5721,2.5989,2.5995,2.6,2.6028,2.6038,2.6047,0,0,0,0,0,2.5227,2.5305,2.5302,2.5323,2.5437,2.5524,2.5539,2.5559,2.5532,2.5572,2.5607,2.5601,2.5777,2.5737,2.5759,2.581,2.5986,2.5993,2.6,2.6024,2.6036,2.6046,0,0,0,0,0,0,2.5248,2.5314,2.5311,2.5411,2.5461,2.5522,2.5573,2.5572,2.5633,2.5628,2.5653,2.5668,2.5764,2.5797,2.5751,2.5914,2.5878,2.589,2.5889,2.5901,2.591,2.59,2.5728,0,0,0,0,0,2.5264,2.5327,2.5381,2.5465,2.549,2.5527,2.5566,2.5577,2.5631,2.5653,2.5695,2.575,2.5817,2.5861,2.5926,2.6033,2.6048,2.6079,2.6088,2.6096,2.6106,2.6164,2.6179,2.6026,2.6026,2.6026,0,0,2.5298,2.5342,2.538,2.547,2.551,2.5576,2.5545,2.5617,2.5666,2.5665,2.5756,2.5789,2.5852,2.5953,2.6,2.5984,2.6151,2.6105,2.611,2.6116,2.6173,2.6187,2.62,2.6031,2.603,2.6029,0,0,2.5394,2.5433,2.5506,2.5547,2.5608,2.5632,2.565,2.5711,2.5732,2.5824,2.5824,2.5885,2.6001,2.6045,2.6083,2.6196,2.6193,2.6217,2.6265,2.6322,2.6334,2.6345,2.6385,2.6399,2.6226,2.6227,2.6227,0,2.5429,2.5526,2.5545,2.5616,2.5656,2.5655,2.5731,2.577,2.5851,2.5879,2.5859,2.6003,2.6046,2.6157,2.6185,2.6216,2.6237,2.6208,2.6331,2.6342,2.6352,2.639,2.6405,2.6229,2.6229,2.6228,2.6228,0,2.5566,2.5634,2.5686,2.5761,2.5807,2.588,2.5911,2.5956,2.5964,2.5991,2.6085,2.6136,2.6211,2.6238,2.6248,2.6352,2.6339,2.6325,2.6289,2.6369,2.6405,2.642,2.6232,2.6231,2.6231,2.623,0,0,2.5678,2.5761,2.578,2.5814,2.5882,2.5935,2.6009,2.608,2.6118,2.6174,2.6237,2.6335,2.6322,2.6365,2.6379,2.6429,2.6515,2.6409,2.6411,2.6426,2.6632,2.6641,2.6658,2.6514,2.6516,2.6519,2.6626,0,2.5779,2.5907,2.5926,2.604,2.6103,2.6104,2.6169,2.6218,2.6246,2.6305,2.6336,2.6404,2.6382,2.6408,2.6458,2.6493,2.6556,2.6486,2.6573,2.6576,2.6556,2.6677,2.6687,2.6786,2.6641,2.6643,2.6645,0,2.5915,2.5971,2.6091,2.6149,2.6177,2.6234,2.63,2.6357,2.6414,2.643,2.6478,2.6486,2.6564,2.6526,2.6634,2.6586,2.6623,2.6646,2.6651,2.6659,2.6614,2.6687,2.6818,2.6832,2.6668,2.6666,2.6664,0,2.5982,2.609,2.6174,2.6204,2.6274,2.6315,2.6347,2.64,2.6442,2.6502,2.6529,2.6598,2.6635,2.6689,2.6716,2.6686,2.6823,2.6787,2.6839,2.6839,2.6867,2.6865,2.7004,2.6893,2.6893,2.6893,2.6892,0,2.6093,2.6166,2.6205,2.6258,2.634,2.6362,2.6443,2.6475,2.6523,2.6582,2.6589,2.6645,2.6678,2.6739,2.6762,2.6848,2.6865,2.6881,2.6886,2.688,2.6878,2.6904,2.6897,2.6897,2.6896,2.6895,2.6894,0,2.6182,2.6212,2.6304,2.6363,2.638,2.6438,2.6489,2.6541,2.6568,2.6644,2.6663,2.6706,2.6779,2.6811,2.6902,2.6917,2.7015,2.7016,2.6995,2.6996,2.7047,2.7041,2.7207,2.723,2.7104,2.7106,2.7107,0,2.625,2.6306,2.6371,2.641,2.6442,2.6506,2.6547,2.6573,2.6617,2.6685,2.6729,2.6801,2.686,2.6977,2.7018,2.7087,2.7089,2.7142,2.7099,2.7091,2.7088,2.7084,2.7089,2.7149,2.7151,2.7152,2.7153,0,2.6367,2.6379,2.6438,2.6503,2.6552,2.6605,2.6656,2.6689,2.6722,2.6772,2.6844,2.689,2.6981,2.7053,2.7125,2.716,2.7162,2.7166,2.7181,2.7175,2.716,2.7167,2.7015,2.7162,2.7161,2.716,2.716,2.7159,2.6447,2.6496,2.6549,2.6615,2.6656,2.6704,2.6755,2.6788,2.6849,2.6924,2.6936,2.7014,2.707,2.7166,2.7204,2.7267,2.7254,2.7277,2.7282,2.7287,2.7289,2.7151,2.728,2.728,2.728,2.728,2.7279,0,2.6563,2.6597,2.6658,2.6729,2.6781,2.6777,2.6834,2.6878,2.6946,2.6998,2.7055,2.7139,2.7209,2.7255,2.7326,2.7368,2.737,2.7385,2.7382,2.739,2.7298,2.7276,2.7382,2.7382,2.7382,2.7382,2.7382,2.7382,2.663,2.6712,2.6731,2.6835,2.6869,2.6943,2.6976,2.7021,2.7062,2.7155,2.7212,2.7241,2.7291,2.7366,2.743,2.7442,2.7468,2.7483,2.7494,2.7407,2.7396,2.7386,2.7366,2.7489,2.7489,2.7581,2.7582,2.7583]},{"header":{"parameterUnit":"m.s-1","parameterCategory":1,"la1":30.2991,"la2":30.254,"lo1":-89.0895,"lo2":-89.0444,"dy":0.0017,"dx":0.0017,"nx":28,"ny":28,"refTime":"2025-07-19T21:00:00:Z","depth":0,"parameterNumber":3,"parameterNumberName":"V-component_of_WINDS"},"data":[0,0,0,0,0,0,0,0,0,0,0,0,0,0,0,0,0,0,0,0,0,0,0,0,0,0,0,0,0,0,0,0,0,0,0,0,0,0,0,0,0,0,0,0,0,0,0,0,0,0,0,0,0,0,0,0,0,0,3.8629,3.863,0,3.8693,3.8694,3.8694,3.8718,3.8718,3.8717,3.8717,3.8778,3.878,3.8781,0,0,0,0,0,0,0,0,0,0,0,0,0,3.8519,3.8521,3.8629,3.863,3.8631,3.8693,3.8694,3.8695,3.8718,3.8718,3.8717,3.8717,3.8777,3.8779,3.8781,0,0,0,0,0,0,0,0,0,0,0,0,0,3.8573,3.8521,3.8629,3.865,3.8652,3.8693,3.8694,3.8695,3.8718,3.8718,3.8717,3.8717,3.8776,3.8779,3.8782,3.8805,0,0,3.879,3.8791,0,0,0,0,0,0,0,0,3.857,3.8577,3.8646,3.8648,3.8651,3.8697,3.8677,3.8731,3.8718,3.8693,3.8717,3.8717,3.8751,3.8756,3.8768,3.8807,3.881,3.879,3.8792,3.8793,3.8794,0,0,0,0,0,0,0,3.8566,3.8574,3.8654,3.8647,3.865,3.8653,3.8661,3.8688,3.8723,3.8695,3.8697,3.8704,3.8752,3.8766,3.877,3.8811,3.879,3.8793,3.8794,3.8795,3.8867,3.8867,0,0,0,0,0,0,3.856,3.8571,3.8652,3.8656,3.8609,3.8656,3.8664,3.8683,3.8722,3.8728,3.8705,3.8705,3.8761,3.8767,3.8772,3.8799,3.8793,3.8796,3.8797,3.8867,3.8867,3.8867,0,0,0,0,0,0,3.8557,3.8567,3.865,3.8614,3.8625,3.8658,3.8679,3.8684,3.8698,3.873,3.8735,3.8712,3.8761,3.8768,3.8796,3.8801,3.8797,3.8799,3.8866,3.8867,3.8867,3.8854,0,0,0,0,0,0,3.8554,3.8566,3.8577,3.8614,3.8627,3.8675,3.8679,3.8686,3.8703,3.8704,3.8738,3.8744,3.8761,3.8791,3.8798,3.8805,3.8801,3.8866,3.8867,3.8867,3.8854,3.8854,3.8854,0,0,0,0,0,3.855,3.8571,3.8578,3.8587,3.8642,3.8675,3.8682,3.8703,3.8703,3.8713,3.8733,3.8743,3.8799,3.8794,3.8802,3.881,3.8866,3.8867,3.8867,3.8854,3.8854,3.8854,0,0,0,0,0,0,3.8533,3.8576,3.8584,3.8618,3.8643,3.8679,3.8693,3.8703,3.8727,3.8727,3.8751,3.8758,3.8783,3.8799,3.8792,3.8831,3.8833,3.8835,3.882,3.8821,3.882,3.8816,3.8804,0,0,0,0,0,3.8533,3.8558,3.8594,3.862,3.8632,3.866,3.8675,3.8689,3.8715,3.8725,3.8747,3.877,3.8793,3.8808,3.8831,3.8856,3.8862,3.8865,3.8865,3.8864,3.8866,3.8877,3.8878,3.887,3.887,3.887,0,0,3.8533,3.856,3.8575,3.8617,3.8638,3.8661,3.8669,3.8694,3.871,3.8728,3.8756,3.8772,3.8799,3.8825,3.8837,3.8839,3.8869,3.8865,3.8865,3.8867,3.8878,3.8879,3.8879,3.887,3.887,3.887,0,0,3.8546,3.857,3.8593,3.8613,3.8644,3.8662,3.8667,3.8701,3.8713,3.8741,3.8754,3.8772,3.8812,3.883,3.8844,3.8858,3.8867,3.8864,3.8864,3.8875,3.8875,3.8876,3.8879,3.888,3.8866,3.8866,3.8866,0,3.8542,3.858,3.8603,3.8626,3.8643,3.8661,3.8682,3.87,3.8736,3.8746,3.8747,3.8795,3.8815,3.8843,3.8846,3.8858,3.8862,3.8861,3.8874,3.8875,3.8875,3.8879,3.888,3.8865,3.8865,3.8865,3.8865,0,3.8572,3.8597,3.8611,3.8646,3.8664,3.8687,3.871,3.8725,3.8736,3.8752,3.8778,3.8802,3.8828,3.8836,3.8847,3.8865,3.8865,3.8869,3.8872,3.8875,3.8878,3.888,3.8864,3.8865,3.8865,3.8865,0,0,3.8578,3.8623,3.8628,3.8642,3.8676,3.8695,3.8716,3.8742,3.8753,3.8777,3.8793,3.8824,3.8828,3.8844,3.8857,3.8866,3.8873,3.8869,3.887,3.8868,3.889,3.8886,3.8888,3.8878,3.8879,3.8879,3.8888,0,3.8593,3.8634,3.8653,3.8684,3.8706,3.8721,3.8738,3.8759,3.8774,3.8793,3.8808,3.8829,3.8834,3.8843,3.8853,3.887,3.8877,3.8869,3.8892,3.8892,3.8884,3.889,3.8886,3.8893,3.8889,3.889,3.889,0,3.8618,3.8641,3.8675,3.8703,3.8712,3.8728,3.8752,3.8771,3.8793,3.8803,3.8819,3.8831,3.885,3.885,3.8875,3.8869,3.8879,3.8888,3.8888,3.8891,3.8891,3.8891,3.8897,3.8897,3.8892,3.8892,3.8892,0,3.8616,3.8656,3.868,3.8692,3.8726,3.8736,3.8751,3.8773,3.8787,3.8807,3.8815,3.8837,3.8848,3.8863,3.8879,3.8878,3.8902,3.8904,3.8909,3.8908,3.8914,3.8913,3.8919,3.8921,3.8921,3.8921,3.892,0,3.8632,3.8651,3.8679,3.8694,3.8715,3.8735,3.8754,3.8769,3.8788,3.8803,3.8817,3.8831,3.8852,3.8868,3.888,3.8898,3.8903,3.891,3.8913,3.8908,3.8907,3.8915,3.8915,3.8921,3.8921,3.8921,3.8921,0,3.8634,3.8654,3.8681,3.871,3.8717,3.8731,3.8755,3.8768,3.8782,3.8802,3.8808,3.883,3.8849,3.8866,3.8891,3.8899,3.8916,3.8921,3.8909,3.8911,3.8914,3.8913,3.8925,3.8927,3.8927,3.8927,3.8927,0,3.8642,3.8657,3.8687,3.8699,3.8713,3.8732,3.8746,3.8765,3.8778,3.8802,3.8812,3.8832,3.8849,3.8878,3.8895,3.8913,3.8917,3.892,3.892,3.8914,3.8916,3.8915,3.8915,3.892,3.892,3.892,3.892,0,3.8653,3.8662,3.8682,3.8704,3.872,3.8738,3.8757,3.8765,3.8787,3.88,3.882,3.8833,3.8858,3.8877,3.8897,3.8909,3.8917,3.8919,3.8921,3.8917,3.8909,3.8912,3.8907,3.8919,3.8919,3.8919,3.8919,3.8919,3.8658,3.867,3.8693,3.8714,3.8729,3.8745,3.8759,3.8774,3.8792,3.8814,3.8823,3.8843,3.8861,3.8888,3.89,3.8914,3.8916,3.8919,3.8919,3.892,3.8918,3.8907,3.8917,3.8917,3.8917,3.8917,3.8918,0,3.8668,3.8683,3.8702,3.8727,3.8742,3.8749,3.8769,3.8781,3.8798,3.8815,3.8831,3.8852,3.887,3.8887,3.8905,3.8912,3.8916,3.8916,3.8916,3.8918,3.8916,3.8912,3.8912,3.8912,3.8912,3.8912,3.8912,3.8912,3.8676,3.8697,3.8707,3.8735,3.8749,3.8769,3.8779,3.8793,3.8807,3.883,3.8845,3.8856,3.8872,3.8891,3.8906,3.891,3.8916,3.8914,3.892,3.8918,3.8918,3.8918,3.8915,3.8916,3.8916,3.892,3.892,3.892]}]]